Flag for Jersey Weather past 2 weeks in Saint Helier, Jersey

Now
50 °F

Drizzle. Partly sunny.


Feels Like: 41 °F
Forecast: 49 / 52 °F
Wind: 35 mph from West

Location: Jersey Airport

Current Time: Mar 29, 2015 at 12:36:46 PM

Latest Report: Mar 29, 2015 at 12:20 PM


Visibility: 3 mi

Pressure: 29.80 "Hg

Humidity: 100%

Dew point: 50 °F

Location of Saint HelierLocation

Historic Weather in Saint Helier — Graph

°F

Saint Helier temperature yesterday

Maximum temperature yesterday: 55 °F (at 11:20 AM)
Minimum temperature yesterday: 48 °F (at 4:20 AM)
Average temperature yesterday: 51 °F

Past Weeks' High & Low Weather Summary

 TemperatureHumidityPressure
High55 °F (Mar 28, 11:20 AM)100% (Mar 17, 6:50 AM)30.45 "Hg (Mar 17, 6:50 AM)
Low34 °F (Mar 23, 4:50 AM)54% (Mar 23, 1:50 PM)29.65 "Hg (Mar 26, 5:50 AM)
Average46 °F84%30.14 "Hg
* Reported Mar 14 10:20 AM — Mar 29 11:20 AM, Saint Helier, Weather by CustomWeather, © 2015

Note: Actual official high and low records may vary slightly from our data, if they occured in-between our weather recording intervals... More about our weather records

Advertising

Saint Helier weather history for previous 24 hours

 ConditionsComfort  
Time TempWeatherWind HumidityBarometerVisibility
11:20 AM
Sun, Mar 29
50 °FPartly sunny.35 mph100%29.80 "Hg4 mi
10:50 AM52 °FPartly sunny.36 mph94%29.80 "Hg4 mi
10:20 AM50 °FPartly sunny.33 mph100%29.80 "Hg4 mi
9:50 AM50 °FFog.33 mph94%29.83 "Hg2 mi
9:20 AM50 °FPartly sunny.26 mph100%29.83 "Hg2 mi
8:50 AM50 °FDrizzle. Partly sunny.25 mph94%29.86 "Hg2 mi
8:20 AM50 °FPartly sunny.31 mph100%29.86 "Hg2 mi
7:50 AM50 °FPassing clouds.33 mph100%29.86 "Hg2 mi
7:20 AM50 °FPassing clouds.29 mph100%29.86 "Hg3 mi
6:50 AM50 °FRain. Passing clouds.32 mph94%29.86 "Hg3 mi
6:20 AM50 °FLight rain. Passing clouds.25 mph100%29.86 "Hg2 mi
5:50 AM50 °FLight rain. Passing clouds.28 mph94%29.86 "Hg2 mi
5:20 AM48 °FLight rain. Passing clouds.25 mph100%29.89 "Hg2 mi
4:20 AM48 °FLight rain. Passing clouds.23 mph100%29.92 "Hg2 mi
3:50 AM48 °FLight rain. Passing clouds.28 mph100%29.92 "Hg2 mi
9:20 PM
Sat, Mar 28
50 °FFog.24 mph94%30.01 "Hg3 mi
8:50 PM50 °FFog.24 mph94%30.01 "Hg3 mi
8:20 PM50 °FFog.22 mph100%30.01 "Hg3 mi
7:50 PM50 °FFog.25 mph100%30.01 "Hg3 mi
7:20 PM50 °FFog.23 mph94%30.01 "Hg3 mi
6:50 PM50 °FPassing clouds.23 mph100%29.98 "Hg4 mi
6:20 PM50 °FPartly sunny.22 mph100%30.01 "Hg4 mi
5:50 PM50 °FPartly sunny.26 mph100%29.98 "Hg4 mi
5:20 PM50 °FBroken clouds.22 mph100%29.98 "Hg4 mi
4:50 PM50 °FPartly sunny.23 mph100%30.01 "Hg4 mi
4:20 PM50 °FPartly sunny.23 mph100%29.98 "Hg4 mi
3:50 PM50 °FFog.25 mph100%30.01 "Hg1 mi
3:20 PM52 °FCool.21 mph100%30.01 "Hg1 mi
2:50 PM52 °FCool.23 mph100%30.01 "Hg1 mi
2:20 PM52 °FDrizzle. Partly sunny.21 mph94%30.01 "Hg1 mi
1:50 PM52 °FDrizzle. Broken clouds.21 mph94%30.04 "Hg2 mi
1:20 PM54 °FDrizzle. Partly sunny.18 mph88%30.04 "Hg6 mi
12:50 PM55 °FPartly sunny.20 mph82%30.04 "HgN/A
12:20 PM55 °FPartly sunny.20 mph82%30.04 "HgN/A
Weather by CustomWeather, © 2015

See weather overviewHow to use our weather pages